This is the latest recevied weather packets stored in our database for station/object N2WH. If no packets are shown the sender has not sent any weather packets the latest 10 day(s).
| Time | Temp. | Humidity | Pressure | Rain* | Wind** | Luminosity | Snow |
|---|---|---|---|---|---|---|---|
| 1777518939 | 8.33° C | 99% | 1011.2 hPa | 1.78 mm | - | 0 W/m² | - |
| 1777518636 | 8.89° C | 99% | 1011.4 hPa | 1.78 mm | - | 0 W/m² | - |
| 1777518332 | 8.89° C | 99% | 1011.1 hPa | 0 mm | - | 0 W/m² | - |
| 1777518028 | 8.89° C | 99% | 1011 hPa | 3.05 mm | - | 0 W/m² | - |
| 1777517724 | 8.89° C | 99% | 1011 hPa | 4.32 mm | - | 0 W/m² | - |
| 1777517421 | 8.89° C | 98% | 1010.9 hPa | 3.05 mm | - | 0 W/m² | - |
| 1777517120 | 8.89° C | 98% | 1010.6 hPa | 3.56 mm | - | 0 W/m² | - |
| 1777516817 | 8.89° C | 98% | 1011.1 hPa | 3.05 mm | - | 0 W/m² | - |
| 1777516514 | 8.89° C | 98% | 1011.4 hPa | 3.05 mm | - | 0 W/m² | - |
| 1777516209 | 8.89° C | 98% | 1011.5 hPa | 3.05 mm | - | 0 W/m² | - |
| 1777515906 | 8.89° C | 98% | 1011.7 hPa | 3.05 mm | - | 0 W/m² | - |
| 1777515603 | 8.89° C | 98% | 1011.8 hPa | 3.05 mm | - | 0 W/m² | - |
| 1777515300 | 8.89° C | 97% | 1012 hPa | 3.05 mm | - | 0 W/m² | - |
| 1777514996 | 8.89° C | 97% | 1011.7 hPa | 3.05 mm | - | 0 W/m² | - |
| 1777514692 | 8.89° C | 97% | 1011.8 hPa | 4.32 mm | - | 0 W/m² | - |
| 1777514390 | 8.89° C | 97% | 1011.7 hPa | 4.83 mm | - | 0 W/m² | - |
| 1777514086 | 8.89° C | 96% | 1011.6 hPa | 4.83 mm | - | 0 W/m² | - |
| 1777513783 | 8.89° C | 96% | 1011.5 hPa | 4.83 mm | - | 0 W/m² | - |
| 1777513480 | 9.44° C | 96% | 1011.9 hPa | 3.05 mm | - | 0 W/m² | - |
| 1777513177 | 9.44° C | 95% | 1011.7 hPa | 1.27 mm | - | 0 W/m² | - |
| 1777512872 | 9.44° C | 95% | 1011.8 hPa | 3.05 mm | - | 0 W/m² | - |
| 1777512570 | 9.44° C | 95% | 1011.8 hPa | 3.05 mm | - | 0 W/m² | - |
| 1777512266 | 9.44° C | 94% | 1011.7 hPa | 3.05 mm | - | 0 W/m² | - |
| 1777511963 | 9.44° C | 94% | 1011.8 hPa | 1.78 mm | - | 0 W/m² | - |
| 1777511661 | 9.44° C | 94% | 1011.6 hPa | 1.27 mm | - | 0 W/m² | - |
* Rain latest hour (hover to see other rain measurements)
** Current wind speed in m/s (hover to see current wind gust speed)